ANZ945 NCRG-NZAA

Flight info

Callsign ANZ945
Flight time N/A
Altitude 34000
Route TOKET1P BIXIT G594 AKLOM
Aircraft B77W/H-SDE1E2E3FGHIJ2J3J4J5M1RWXY/LB1D1

Departure

Time 2026-04-25 02:50
Airport Rarotonga International Airport (NCRG)

Arrival

Time N/A
Airport Auckland International Airport (NZAA)
Time Latitude Longitude Altitude Speed Heading
2026-04-25 02:37 -21.20082 -159.79846 28 ft 0 kts 91°
2026-04-25 02:46 -21.20082 -159.79841 29 ft 3 kts 94°
2026-04-25 02:46 -21.20115 -159.79820 29 ft 8 kts 174°
2026-04-25 02:46 -21.20189 -159.79821 29 ft 16 kts 187°
2026-04-25 02:46 -21.20257 -159.79944 30 ft 25 kts 269°
2026-04-25 02:47 -21.20258 -159.80135 28 ft 27 kts 270°
2026-04-25 02:47 -21.20259 -159.80344 28 ft 29 kts 270°
2026-04-25 02:47 -21.20257 -159.80556 28 ft 29 kts 270°
2026-04-25 02:47 -21.20256 -159.80772 30 ft 29 kts 270°
2026-04-25 02:48 -21.20258 -159.80984 32 ft 29 kts 269°
2026-04-25 02:48 -21.20258 -159.81197 33 ft 29 kts 270°
2026-04-25 02:48 -21.20258 -159.81399 35 ft 27 kts 269°
2026-04-25 02:48 -21.20220 -159.81585 33 ft 25 kts 302°
2026-04-25 02:49 -21.20237 -159.81651 33 ft 8 kts 148°
2026-04-25 02:49 -21.20250 -159.81614 34 ft 0 kts 96°
2026-04-25 02:49 -21.20258 -159.81508 34 ft 51 kts 92°
2026-04-25 02:50 -21.20258 -159.80796 30 ft 138 kts 90°
2026-04-25 02:50 -21.20262 -159.79547 272 ft 182 kts 89°
2026-04-25 02:50 -21.20146 -159.78245 1327 ft 178 kts 76°
2026-04-25 02:50 -21.19535 -159.76987 1853 ft 204 kts 65°
2026-04-25 02:51 -21.19090 -159.75447 2211 ft 226 kts 83°
2026-04-25 02:51 -21.18721 -159.73682 2552 ft 253 kts 69°
2026-04-25 02:51 -21.17645 -159.72171 3310 ft 267 kts 36°
2026-04-25 02:51 -21.15878 -159.71473 4156 ft 277 kts
2026-04-25 02:52 -21.13995 -159.71809 5096 ft 280 kts 334°
2026-04-25 02:52 -21.12457 -159.73050 6026 ft 281 kts 306°
2026-04-25 02:52 -21.11641 -159.74934 6893 ft 279 kts 276°
2026-04-25 02:52 -21.11852 -159.76955 7814 ft 274 kts 245°
2026-04-25 02:53 -21.12730 -159.78772 8607 ft 278 kts 239°
2026-04-25 02:53 -21.13688 -159.80569 9489 ft 281 kts 239°
2026-04-25 02:53 -21.14654 -159.82395 10378 ft 283 kts 240°
2026-04-25 02:53 -21.15643 -159.84306 10854 ft 304 kts 240°
2026-04-25 02:54 -21.16696 -159.86373 11054 ft 331 kts 241°
2026-04-25 02:54 -21.17844 -159.88633 11268 ft 356 kts 239°
2026-04-25 02:54 -21.19337 -159.90794 11758 ft 367 kts 226°
2026-04-25 02:54 -21.21186 -159.92727 12531 ft 372 kts 224°
2026-04-25 02:55 -21.23074 -159.94646 13388 ft 375 kts 224°
2026-04-25 02:55 -21.24950 -159.96562 14203 ft 377 kts 225°
2026-04-25 02:55 -21.26858 -159.98532 14876 ft 383 kts 225°
2026-04-25 02:55 -21.28783 -160.00541 15516 ft 388 kts 225°
2026-04-25 02:56 -21.30731 -160.02588 16176 ft 393 kts 226°
2026-04-25 02:56 -21.32677 -160.04642 16835 ft 398 kts 226°
2026-04-25 02:56 -21.34670 -160.06750 17483 ft 403 kts 226°
2026-04-25 02:56 -21.36656 -160.08853 18103 ft 408 kts 226°
2026-04-25 02:57 -21.38685 -160.11003 18656 ft 412 kts 226°
2026-04-25 02:57 -21.40732 -160.13172 19270 ft 414 kts 226°
2026-04-25 02:57 -21.42792 -160.15355 19898 ft 416 kts 226°
2026-04-25 02:57 -21.44856 -160.17545 20503 ft 419 kts 226°
2026-04-25 02:58 -21.46944 -160.19760 21106 ft 421 kts 226°
2026-04-25 02:58 -21.49045 -160.21989 21686 ft 424 kts 226°
2026-04-25 02:58 -21.51126 -160.24198 22253 ft 427 kts 226°
2026-04-25 02:58 -21.53249 -160.26452 22824 ft 430 kts 226°
2026-04-25 02:59 -21.55387 -160.28724 23380 ft 432 kts 226°
2026-04-25 02:59 -21.57534 -160.31006 23880 ft 435 kts 226°
2026-04-25 02:59 -21.59696 -160.33306 24317 ft 438 kts 226°
2026-04-25 02:59 -21.61843 -160.35591 24762 ft 440 kts 226°
2026-04-25 03:00 -21.64035 -160.37924 25203 ft 443 kts 226°
2026-04-25 03:00 -21.66229 -160.40262 25636 ft 445 kts 226°
2026-04-25 03:00 -21.68448 -160.42627 26062 ft 448 kts 226°
2026-04-25 03:00 -21.70641 -160.44965 26481 ft 450 kts 226°
2026-04-25 03:01 -21.72879 -160.47352 26892 ft 453 kts 226°
2026-04-25 03:01 -21.75127 -160.49751 27294 ft 456 kts 226°
2026-04-25 03:01 -21.77374 -160.52150 27695 ft 458 kts 226°
2026-04-25 03:01 -21.79636 -160.54567 28072 ft 461 kts 226°
2026-04-25 03:02 -21.81940 -160.57030 28450 ft 464 kts 226°
2026-04-25 03:02 -21.84239 -160.59487 28809 ft 466 kts 226°
2026-04-25 03:02 -21.86541 -160.61951 29150 ft 468 kts 226°
2026-04-25 03:02 -21.88848 -160.64419 29467 ft 471 kts 226°
2026-04-25 03:03 -21.91178 -160.66915 29793 ft 473 kts 226°
2026-04-25 03:03 -21.93507 -160.69410 30081 ft 475 kts 226°
2026-04-25 03:03 -21.95836 -160.71906 30400 ft 475 kts 226°
2026-04-25 03:03 -21.98164 -160.74426 30818 ft 472 kts 227°
2026-04-25 03:04 -22.00393 -160.77056 31288 ft 468 kts 230°
2026-04-25 03:04 -22.02493 -160.79689 31732 ft 465 kts 231°
2026-04-25 03:04 -22.04575 -160.82365 32189 ft 462 kts 231°
2026-04-25 03:05 -22.08669 -160.87639 33001 ft 458 kts 231°
2026-04-25 03:05 -22.10734 -160.90275 33425 ft 456 kts 230°
2026-04-25 03:05 -22.12766 -160.92854 33833 ft 454 kts 230°
2026-04-25 03:05 -22.14830 -160.95462 33970 ft 456 kts 230°
2026-04-25 03:06 -22.18946 -161.00652 34067 ft 456 kts 230°
2026-04-25 03:06 -22.20985 -161.03222 34401 ft 453 kts 230°
2026-04-25 03:06 -22.23021 -161.05790 34861 ft 448 kts 230°
2026-04-25 03:07 -22.25048 -161.08348 35324 ft 442 kts 230°
2026-04-25 03:07 -22.27020 -161.10839 35740 ft 439 kts 230°
2026-04-25 03:07 -22.29015 -161.13360 36002 ft 438 kts 230°
2026-04-25 03:07 -22.30989 -161.15856 35970 ft 441 kts 230°
2026-04-25 03:08 -22.34977 -161.20904 35972 ft 438 kts 230°
2026-04-25 03:08 -22.38914 -161.25891 35976 ft 435 kts 230°